• In Slovakia
  • List of Countries
  • For 7 days
  • Water Temperature
  • Satellite Maps
  • Weather Map
  • Weather Widgets
  • user-avatar
    Login

    Hourly Weather Mayrhofen

    Today, 19 November, Sunday

    Time Temperature Precipitation Wind Pressure Humidity
    00:00 -9°C° 0 mm 2 mps 613 mmHg 76%
    01:00 -9°C° 0 mm 2 mps 613 mmHg 74%
    02:00 -8°C° 0 mm 2 mps 613 mmHg 73%
    03:00 -7°C° 0 mm 2 mps 613 mmHg 72%
    04:00 -6°C° 0 mm 1 mps 612 mmHg 70%
    05:00 -6°C° 0.5 mm 1 mps 612 mmHg 76%
    06:00 -7°C° 0.5 mm 2 mps 612 mmHg 82%
    07:00 -6°C° 0.5 mm 2 mps 612 mmHg 87%
    08:00 -6°C° 0.8 mm 2 mps 612 mmHg 88%
    09:00 -5°C° 0.8 mm 2 mps 612 mmHg 90%
    10:00 -4°C° 0.8 mm 2 mps 613 mmHg 91%
    11:00 -4°C° 0.5 mm 2 mps 613 mmHg 89%
    12:00 -5°C° 0.5 mm 3 mps 613 mmHg 87%
    13:00 -5°C° 0.5 mm 3 mps 613 mmHg 85%
    14:00 -5°C° 0.5 mm 3 mps 613 mmHg 86%
    15:00 -6°C° 0.5 mm 3 mps 613 mmHg 88%
    16:00 -5°C° 0.5 mm 2 mps 613 mmHg 90%
    17:00 -6°C° 0.4 mm 2 mps 613 mmHg 91%
    18:00 -6°C° 0.4 mm 2 mps 614 mmHg 92%
    19:00 -7°C° 0.4 mm 2 mps 614 mmHg 93%
    20:00 -7°C° 0.2 mm 2 mps 614 mmHg 93%
    21:00 -7°C° 0.2 mm 2 mps 614 mmHg 93%
    22:00 -8°C° 0.2 mm 2 mps 615 mmHg 93%
    23:00 -8°C° 0.1 mm 2 mps 615 mmHg 93%

    Tomorrow, 20 November, Monday

    Time Temperature Precipitation Wind Pressure Humidity
    00:00 -9°C° 0.1 mm 2 mps 615 mmHg 93%
    01:00 -9°C° 0.1 mm 2 mps 615 mmHg 93%
    02:00 -10°C° 0 mm 2 mps 615 mmHg 93%
    03:00 -10°C° 0 mm 2 mps 615 mmHg 92%
    04:00 -10°C° 0 mm 2 mps 615 mmHg 92%
    05:00 -12°C° 0 mm 2 mps 615 mmHg 90%
    06:00 -12°C° 0 mm 2 mps 615 mmHg 88%
    07:00 -12°C° 0 mm 2 mps 615 mmHg 86%
    08:00 -9°C° 0 mm 2 mps 616 mmHg 81%
    09:00 -7°C° 0 mm 2 mps 616 mmHg 77%
    10:00 -5°C° 0 mm 2 mps 617 mmHg 72%
    11:00 -2°C° 0 mm 1 mps 617 mmHg 71%
    12:00 -1°C° 0 mm 1 mps 617 mmHg 71%
    13:00 0°C° 0 mm 1 mps 617 mmHg 70%
    14:00 0°C° 0.1 mm 1 mps 617 mmHg 74%
    15:00 -1°C° 0.1 mm 1 mps 617 mmHg 78%
    16:00 -1°C° 0.1 mm 1 mps 616 mmHg 83%
    17:00 -2°C° 0.2 mm 1 mps 616 mmHg 84%
    18:00 -4°C° 0.2 mm 2 mps 616 mmHg 85%
    19:00 -4°C° 0.2 mm 2 mps 616 mmHg 86%
    20:00 -4°C° 0 mm 2 mps 615 mmHg 86%
    21:00 -5°C° 0 mm 2 mps 615 mmHg 85%
    22:00 -5°C° 0 mm 2 mps 615 mmHg 85%
    23:00 -4°C° 0 mm 2 mps 615 mmHg 84%

    Day after tomorrow, 21 November, Tuesday

    Time Temperature Precipitation Wind Pressure Humidity
    00:00 -4°C° 0 mm 2 mps 615 mmHg 83%
    01:00 -4°C° 0 mm 2 mps 615 mmHg 82%
    02:00 -4°C° 0.1 mm 2 mps 615 mmHg 82%
    03:00 -4°C° 0.1 mm 2 mps 615 mmHg 82%
    04:00 -4°C° 0.1 mm 2 mps 615 mmHg 82%
    05:00 -4°C° 0.1 mm 2 mps 615 mmHg 83%
    06:00 -4°C° 0.1 mm 2 mps 615 mmHg 84%
    07:00 -4°C° 0.1 mm 2 mps 615 mmHg 85%
    08:00 -2°C° 0.1 mm 2 mps 616 mmHg 85%
    09:00 -1°C° 0.1 mm 2 mps 616 mmHg 85%
    10:00 +1°C° 0.1 mm 2 mps 617 mmHg 85%
    11:00 +1°C° 0 mm 2 mps 617 mmHg 87%
    12:00 +2°C° 0 mm 2 mps 617 mmHg 88%
    13:00 +3°C° 0 mm 2 mps 617 mmHg 89%
    14:00 +3°C° 0 mm 1 mps 617 mmHg 88%
    15:00 +3°C° 0 mm 1 mps 616 mmHg 88%
    16:00 +2°C° 0 mm 1 mps 616 mmHg 87%
    17:00 +1°C° 0 mm 1 mps 616 mmHg 87%
    18:00 0°C° 0 mm 1 mps 616 mmHg 86%
    19:00 -1°C° 0 mm 1 mps 616 mmHg 85%
    20:00 -1°C° 0 mm 1 mps 616 mmHg 85%
    21:00 -1°C° 0 mm 1 mps 616 mmHg 84%
    22:00 -1°C° 0 mm 1 mps 616 mmHg 83%
    23:00 -1°C° 0 mm 1 mps 616 mmHg 82%

    22 November, Wednesday

    Time Temperature Precipitation Wind Pressure Humidity
    00:00 -1°C° 0 mm 1 mps 616 mmHg 81%
    01:00 -1°C° 0 mm 1 mps 616 mmHg 80%
    02:00 -3°C° 0 mm 2 mps 615 mmHg 79%
    03:00 -3°C° 0 mm 2 mps 615 mmHg 79%
    04:00 -3°C° 0 mm 2 mps 615 mmHg 78%
    05:00 -4°C° 0 mm 2 mps 615 mmHg 77%
    06:00 -4°C° 0 mm 2 mps 615 mmHg 77%
    07:00 -4°C° 0 mm 2 mps 615 mmHg 76%
    08:00 0°C° 0 mm 1 mps 616 mmHg 76%
    09:00 +2°C° 0 mm 1 mps 617 mmHg 77%
    10:00 +3°C° 0 mm 1 mps 617 mmHg 78%
    11:00 +4°C° 0 mm 1 mps 617 mmHg 81%
    12:00 +5°C° 0 mm 1 mps 617 mmHg 85%
    13:00 +6°C° 0 mm 1 mps 617 mmHg 88%
    14:00 +5°C° 0 mm 1 mps 617 mmHg 85%
    15:00 +3°C° 0 mm 1 mps 616 mmHg 82%
    16:00 +1°C° 0 mm 2 mps 616 mmHg 79%
    17:00 -1°C° 0 mm 2 mps 616 mmHg 79%
    18:00 -2°C° 0 mm 2 mps 616 mmHg 78%
    19:00 -3°C° 0 mm 2 mps 615 mmHg 77%
    20:00 -3°C° 0 mm 2 mps 615 mmHg 77%
    21:00 -3°C° 0 mm 2 mps 616 mmHg 77%
    22:00 -3°C° 0 mm 2 mps 616 mmHg 77%
    23:00 -3°C° 0 mm 2 mps 616 mmHg 77%

    23 November, Thursday

    Time Temperature Precipitation Wind Pressure Humidity
    00:00 -3°C° 0 mm 2 mps 616 mmHg 77%
    01:00 -3°C° 0 mm 2 mps 616 mmHg 77%
    02:00 -3°C° 0 mm 2 mps 616 mmHg 77%
    03:00 -3°C° 0 mm 2 mps 616 mmHg 76%
    04:00 -3°C° 0 mm 2 mps 616 mmHg 75%
    05:00 -3°C° 0 mm 2 mps 616 mmHg 74%
    06:00 -4°C° 0 mm 2 mps 616 mmHg 73%
    07:00 -4°C° 0 mm 2 mps 616 mmHg 72%
    08:00 -2°C° 0 mm 2 mps 617 mmHg 73%
    09:00 +1°C° 0 mm 2 mps 618 mmHg 73%
    10:00 +2°C° 0 mm 2 mps 618 mmHg 74%
    11:00 +3°C° 0 mm 2 mps 619 mmHg 77%
    12:00 +5°C° 0 mm 1 mps 619 mmHg 81%
    13:00 +6°C° 0 mm 1 mps 619 mmHg 84%
    14:00 +5°C° 0 mm 1 mps 619 mmHg 81%
    15:00 +4°C° 0 mm 1 mps 618 mmHg 78%
    16:00 +2°C° 0 mm 1 mps 618 mmHg 76%
    17:00 +1°C° 0 mm 1 mps 618 mmHg 74%
    18:00 0°C° 0 mm 1 mps 618 mmHg 73%
    19:00 -1°C° 0 mm 1 mps 618 mmHg 72%
    20:00 -1°C° 0 mm 1 mps 618 mmHg 71%
    21:00 -1°C° 0 mm 1 mps 619 mmHg 70%
    22:00 -1°C° 0 mm 1 mps 619 mmHg 68%
    23:00 -3°C° 0 mm 2 mps 619 mmHg 68%

    24 November, Friday

    Time Temperature Precipitation Wind Pressure Humidity
    00:00 -3°C° 0 mm 2 mps 619 mmHg 67%
    01:00 -3°C° 0 mm 2 mps 619 mmHg 67%
    02:00 -3°C° 0 mm 2 mps 619 mmHg 67%
    03:00 -3°C° 0 mm 2 mps 619 mmHg 68%
    04:00 -3°C° 0 mm 2 mps 618 mmHg 69%
    05:00 -3°C° 0 mm 2 mps 618 mmHg 70%
    06:00 -3°C° 0 mm 2 mps 618 mmHg 70%
    07:00 -3°C° 0 mm 2 mps 619 mmHg 71%
    08:00 -2°C° 0 mm 2 mps 619 mmHg 72%
    09:00 -1°C° 0 mm 2 mps 619 mmHg 73%
    10:00 +2°C° 0 mm 2 mps 620 mmHg 74%
    11:00 +3°C° 0 mm 2 mps 620 mmHg 76%
    12:00 +4°C° 0 mm 2 mps 620 mmHg 77%
    13:00 +4°C° 0 mm 2 mps 620 mmHg 79%
    14:00 +4°C° 0 mm 2 mps 619 mmHg 78%
    15:00 +3°C° 0 mm 2 mps 619 mmHg 77%
    16:00 +2°C° 0 mm 2 mps 619 mmHg 76%
    17:00 +1°C° 0 mm 2 mps 619 mmHg 75%
    18:00 -1°C° 0 mm 2 mps 619 mmHg 74%
    19:00 -1°C° 0 mm 2 mps 619 mmHg 73%
    20:00 -2°C° 0 mm 2 mps 619 mmHg 72%
    21:00 -2°C° 0 mm 2 mps 619 mmHg 71%
    22:00 -2°C° 0 mm 2 mps 619 mmHg 70%
    23:00 -2°C° 0 mm 2 mps 619 mmHg 70%
    Show more